GALAXY 18 (G-18)

Last updated on Sat Apr 13 2024 01:02:37 GMT+0100 (British Summer Time)

1 32951U 08024A 24103.56788975 .00000017 00000+0 00000+0 0 9995 2 32951 0.0204 121.3065 0002906 252.9744 268.3892 1.00271257 37874
UTC large
Height (km)
Speed (km/s)
/
Latitude / Longitude
Inclination (degrees)
Orbital Period (minutes)
Azimuth
Elevation
Range (km)
Doppler Factor

Next 0 passes for location: London (51.5072 / 0.1276)

Sorry there are no passes over London.